OROVILLE DAM (ORO)

Elevation: 900' · FEATHER R basin · Operator: CA Dept of Water Resources/O & M

Provisional data, subject to change.
Query executed Friday at 23:54:51   clock

Select a sensor type for a plot of data.
Note: Reservoir Flows are daily averages.

Earlier

Date RES ELE    STORAGE    RES CHG    TOC STO    ABV TOC    OUTFLOW    INFLOW    EVAP    FNF    PPT INC    RAIN    PPTINC4   
 FEET   AF   AF   AF   AF   CFS   CFS   CFS   CFS   INCHES   INCHES   INCHES  
09/01/2016 765.64 1827950 -11617 3538000 -1710050 6856 1159 109 358 0.00 30.68 0.00
09/02/2016 764.51 1816780 -11170 3538000 -1721220 6709 1129 101 516 0.00 30.68 0.00
09/03/2016 763.42 1806052 -10728 3538000 -1731948 6347 1032 93 479 e 0.00 30.68 0.00
09/04/2016 762.27 1794784 -11268 3538000 -1743216 6226 639 93 479 e 0.00 30.68 0.00
09/05/2016 761.18 1784150 -10634 3538000 -1753850 6464 1196 93 479 e 0.00 30.68 0.00
09/06/2016 760.15 1774144 -10006 3538000 -1763856 6409 1437 73 493 e 0.00 30.68 0.00
09/07/2016 758.98 1762806 -11338 3538000 -1775194 6578 976 108 493 e 0.00 30.68 0.00
09/08/2016 758.06 1753933 -8873 3538000 -1784067 5911 1500 111 540 e 0.00 30.68 0.00
09/09/2016 757.30 1746627 -7306 3538000 -1791373 5807 2254 82 540 e 0.00 30.68 0.00
09/10/2016 756.52 1739152 -7475 3538000 -1798848 5804 2068 82 500 e 0.00 30.68 0.00
09/11/2016 755.54 1729792 -9360 3538000 -1808208 5855 1265 81 500 e 0.00 30.68 0.00
09/12/2016 754.59 1720753 -9039 3538000 -1817247 5583 1133 106 500 e 0.00 30.68 0.00
09/13/2016 753.92 1714397 -6356 3538000 -1823603 5092 1959 71 500 e 0.00 30.68 0.00
09/14/2016 753.05 1706170 -8227 3538000 -1831830 5672 1598 74 598 0.00 30.68 0.00
09/15/2016 752.30 1699100 -7070 3525500 -1826400 5273 1789 80 611 e 0.00 30.68 0.00
09/16/2016 751.84 1694775 -4325 3513000 -1818225 3603 1505 83 775 0.00 30.68 0.00
09/17/2016 751.25 1689238 -5537 3500500 -1811262 4288 1576 80 611 e 0.00 30.68 0.00
09/18/2016 750.64 1683526 -5711 3488000 -1804474 4515 1668 80 677 e 0.00 30.68 0.00
09/19/2016 750.00 1677549 -5978 3475500 -1797951 4410 1518 168 677 e 0.00 30.68 0.00
09/20/2016 749.24 1670470 -7079 3463000 -1792530 4411 1063 127 611 e 0.00 30.68 0.00
09/21/2016 748.63 1664804 -5666 3450500 -1785696 4413 1677 120 571 0.00 30.68 0.00
09/22/2016 748.00 1658966 -5838 3438000 -1779034 4461 1547 76 826 0.00 30.68 0.00
09/23/2016 747.44 1653789 -5177 3425500 -1771711 4162 1683 85 598 0.00 30.68 0.00
09/24/2016 746.92 1648992 -4797 3413000 -1764008 3910 1570 78 897 0.00 30.68 0.00
09/25/2016 746.46 1644757 -4235 3400500 -1755743 3912 1871 94 793 e 0.00 30.68 0.00
09/26/2016 746.00 1640529 -4228 3388000 -1747471 3963 1959 128 792 e 0.00 30.68 0.00
09/27/2016 745.49 1635851 -4678 3375500 -1739649 4018 1778 118 536 0.00 30.68 0.00
09/28/2016 744.85 1629993 -5858 3363000 -1733007 3998 1098 99 921 0.00 30.68 0.00
09/29/2016 744.32 1625154 -4839 3350500 -1725346 4047 1753 99 -- 0.00 30.68 0.00
09/30/2016 -- -- -- -- -- -- -- -- -- -- -- 0.00

Later | Latest

Warning! This data is preliminary and subject to revision.

Show ORO Map | Plot ORO Data | 1 Month ORO Data | Real-Time ORO Data | ORO Info